Location: Ago
(8.4667°N, 4.4833°E)
Time: 23:44:04
(UTC+00:00)

Atlas Centaur 2 - Pass Details

Date: 18 September 2020
Orbit: 459 x 1310 km, 30.4° (Epoch: 20 October)

Event Time Altitude Azimuth Distance (km) Brightness Sun altitude
Rises 17:48:24 0° 295° (WNW) 4,086 7.2 -2.9°
Reaches altitude 10° 17:51:33 10° 291° (WNW) 3,017 6.6 -3.6°
Maximum altitude 17:58:46 57° 215° (SW) 1,134 3.1 -5.4°
Drops below altitude 10° 18:04:32 10° 137° (SE) 2,414 4.2 -6.8°
Enters shadow 18:06:39 - 132° (SE) 3,163 4.7 -7.4°
